Weather History for North Platte, NE

Change the Weather History Date:

Monday, March 25, 2013

  Actual Average Record
Temperature  
Mean Temperature 23 °F 41 °F  
Max Temperature 35 °F 55 °F 84 °F (1907)
Min Temperature 11 °F 26 °F 0 °F (1965)
Degree Days  
Heating Degree Days 42 24  
Month to date heating degree days 747 697  
Since 1 July heating degree days 5707 5725  
Cooling Degree Days 0 0  
Month to date cooling degree days 0 0  
Year to date cooling degree days 0 0  
Moisture  
Dew Point 9 °F    
Average Humidity 60    
Maximum Humidity 84    
Minimum Humidity 35    
Precipitation  
Precipitation 0.00 in 0.03 in 1.61 in (1959)
Month to date precipitation 0.21 0.78  
Year to date precipitation 1.49 1.62  
Snow  
Snow 0.00 in 0.10 in 6.30 in (1959)
Month to date snowfall 2.7 3.5  
Since 1 July snowfall 22.6 24.4  
Snow Depth 0.00 in    
Sea Level Pressure  
Sea Level Pressure 30.38 in    
Wind  
Wind Speed 11 mph (NNW)    
Max Wind Speed 23 mph    
Max Gust Speed 29 mph    
Visibility 10 miles    
Events      
T = Trace of Precipitation, MM = Missing Value Source: NWS Daily Summary

Daily Weather History Graph

Daily Weather History Graph

Search for Another Location

Airport:

Trip Planner

Search our weather history database for the weather conditions in past years. The results will help you decide how hot, cold, wet, or windy it might be!

Date:

Astronomy

Mar. 25, 2013 Rise Set
Actual Time 7:37 AM CDT 8:00 PM CDT
Civil Twilight 7:09 AM CDT 8:28 PM CDT
Nautical Twilight 6:37 AM CDT 9:00 PM CDT
Astronomical Twilight 6:04 AM CDT 9:33 PM CDT
Moon 6:33 PM CDT (3/25) 6:22 AM CDT (3/25)
Length of Visible Light 13h 18m
Length of Day
12h 23m
Waxing Gibbous, 96% of the Moon is Illuminated
Mar 25
Waxing Gibbous
Mar 27
Full
Apr 2
Last Quarter
Apr 10
New
Apr 18
First Quarter

Hourly Weather History & Observations

Time (CDT) Temp. Windchill Dew Point Humidity Pressure Visibility Wind Dir Wind Speed Gust Speed Precip Events Conditions
12:53 AM 16.0 °F 4.4 °F 10.9 °F 81% 30.34 in 10.0 mi NW 9.2 mph - N/A   Clear
1:53 AM 15.1 °F 1.8 °F 10.0 °F 80% 30.35 in 10.0 mi NW 11.5 mph - N/A   Clear
2:53 AM 15.1 °F 2.5 °F 10.0 °F 80% 30.36 in 10.0 mi NW 10.4 mph - N/A   Clear
3:53 AM 15.1 °F 2.5 °F 10.0 °F 80% 30.35 in 10.0 mi NW 10.4 mph - N/A   Clear
4:53 AM 14.0 °F 2.0 °F 9.0 °F 80% 30.35 in 10.0 mi NW 9.2 mph - N/A   Clear
5:53 AM 14.0 °F -0.8 °F 9.0 °F 80% 30.36 in 10.0 mi NW 13.8 mph - N/A   Clear
6:53 AM 12.9 °F -0.9 °F 8.1 °F 81% 30.39 in 10.0 mi NW 11.5 mph - N/A   Clear
7:53 AM 10.9 °F -0.8 °F 7.0 °F 84% 30.41 in 10.0 mi NW 8.1 mph - N/A   Clear
8:53 AM 16.0 °F 1.7 °F 10.0 °F 77% 30.42 in 10.0 mi NNW 13.8 mph - N/A   Clear
9:53 AM 19.0 °F 3.6 °F 9.0 °F 65% 30.42 in 10.0 mi NNW 18.4 mph 25.3 mph N/A   Partly Cloudy
10:21 AM 21.2 °F 6.4 °F 10.4 °F 63% 30.31 in 10.0 mi NNW 18.4 mph - N/A   Mostly Cloudy
10:53 AM 21.9 °F 7.8 °F 9.0 °F 58% 30.43 in 10.0 mi NNW 17.3 mph 26.5 mph N/A   Overcast
11:35 AM 23.0 °F 9.6 °F 8.6 °F 54% 30.31 in 10.0 mi NW 16.1 mph 25.3 mph N/A   Mostly Cloudy
11:53 AM 24.1 °F 10.1 °F 7.0 °F 48% 30.42 in 10.0 mi NNW 18.4 mph 25.3 mph N/A   Mostly Cloudy
12:53 PM 28.0 °F 14.9 °F 7.0 °F 41% 30.41 in 10.0 mi NW 19.6 mph 25.3 mph N/A   Scattered Clouds
1:53 PM 30.0 °F 18.3 °F 9.0 °F 41% 30.40 in 10.0 mi NW 17.3 mph 24.2 mph N/A   Partly Cloudy
2:53 PM 30.9 °F 21.2 °F 8.1 °F 38% 30.38 in 10.0 mi NNW 12.7 mph 23.0 mph N/A   Clear
3:53 PM 33.1 °F 24.9 °F 9.0 °F 37% 30.37 in 10.0 mi NNW 10.4 mph 21.9 mph N/A   Clear
4:53 PM 34.0 °F 25.0 °F 10.0 °F 37% 30.36 in 10.0 mi North 12.7 mph 17.3 mph N/A   Clear
5:53 PM 34.0 °F 25.5 °F 8.1 °F 34% 30.35 in 10.0 mi North 11.5 mph - N/A   Clear
6:53 PM 30.9 °F 26.2 °F 9.0 °F 40% 30.37 in 10.0 mi NNW 4.6 mph - N/A   Clear
7:53 PM 26.1 °F 21.9 °F 10.0 °F 51% 30.40 in 10.0 mi NNE 3.5 mph - N/A   Clear
8:53 PM 23.0 °F 15.8 °F 9.0 °F 55% 30.40 in 10.0 mi North 5.8 mph - N/A   Clear
9:53 PM 21.9 °F - 8.1 °F 55% 30.40 in 10.0 mi Calm Calm - N/A   Clear
10:53 PM 16.0 °F 8.8 °F 8.1 °F 71% 30.42 in 10.0 mi SE 4.6 mph - N/A   Clear
11:53 PM 12.9 °F 3.8 °F 7.0 °F 77% 30.42 in 10.0 mi East 5.8 mph - N/A   Clear